Location: Bailleul
(50.3375°N, 2.8513°E)
Time: 19:46:35
(UTC+00:00)

NOSS 2-2 (E) - Pass Details

Date: 19 April 2021
Orbit: 459 x 1746 km, 63.3° (Epoch: 02 May)

Event Time Altitude Azimuth Distance (km) Brightness Sun altitude
Rises 23:34:00 0° 316° (NW) 3,053 7.8 -28.1°
Reaches altitude 10° 23:36:02 10° 317° (NW) 2,272 7.0 -28.1°
Maximum altitude 23:41:17 84° 46° (NE) 944 4.3 -28.1°
Enters shadow 23:42:00 71° 119° (ESE) 1,011 4.4 -28.1°
